[[{"header":{"parameterUnit":"m.s-1","parameterCategory":2,"la1":30.2991,"la2":30.254,"lo1":-89.0895,"lo2":-89.0444,"dy":0.0017,"dx":0.0017,"nx":28,"ny":28,"refTime":"2024-06-22T09:00:00:Z","depth":"0","parameterNumber":2,"parameterNumberName":"U-component_of_CURRENTS"},"data":[0,0,0,0,0,0,0,0,0,0,0,0,0,0,0,0,0,0,0,0,0,0,0,0,0,0,0,0,0,0,0,0,0,0,0,0,0,0,0,0,0,0,0,0,0,0,0,0,0,0,0,0,0,0,0,0,0,0,0.5677,0.5678,0,0.5752,0.5752,0.5752,0.5801,0.5802,0.5803,0.5804,0.5647,0.5642,0.5636,0,0,0,0,0,0,0,0,0,0,0,0,0,0.5539,0.5541,0.5676,0.5678,0.568,0.5752,0.5752,0.5752,0.58,0.5802,0.5803,0.5805,0.5649,0.5642,0.5636,0,0,0,0,0,0,0,0,0,0,0,0,0,0.5596,0.5541,0.5676,0.572,0.5725,0.5752,0.5752,0.5752,0.58,0.5802,0.5804,0.5805,0.5651,0.5643,0.5635,0.555,0,0,0.5611,0.5607,0,0,0,0,0,0,0,0,0.5592,0.5599,0.5712,0.5717,0.5723,0.5777,0.5646,0.5676,0.58,0.5762,0.5804,0.5806,0.5674,0.5664,0.5664,0.5543,0.5536,0.561,0.5605,0.5602,0.56,0,0,0,0,0,0,0,0.5588,0.5596,0.5696,0.5714,0.5721,0.5725,0.5734,0.5652,0.5695,0.5765,0.5771,0.5794,0.5674,0.5672,0.566,0.5534,0.561,0.5603,0.5598,0.5595,0.525,0.5246,0,0,0,0,0,0,0.5599,0.5593,0.5694,0.57,0.5672,0.5726,0.5736,0.575,0.5701,0.57,0.5793,0.5797,0.5684,0.5669,0.5654,0.547,0.5602,0.5594,0.559,0.5255,0.5249,0.5245,0,0,0,0,0,0,0.5595,0.5606,0.5691,0.5656,0.5669,0.5728,0.5743,0.5751,0.5762,0.5727,0.5719,0.5798,0.5685,0.5665,0.5556,0.5468,0.5591,0.5584,0.526,0.5253,0.5247,0.5152,0,0,0,0,0,0,0.559,0.5604,0.5594,0.5657,0.5671,0.5682,0.5742,0.5751,0.5777,0.5783,0.5727,0.5715,0.5685,0.5568,0.5548,0.5459,0.5577,0.5266,0.5257,0.5249,0.5161,0.5143,0.5128,0,0,0,0,0,0.5585,0.5567,0.5593,0.5605,0.5663,0.5681,0.5686,0.5729,0.5776,0.575,0.5712,0.5717,0.5502,0.5558,0.5536,0.5442,0.5269,0.5259,0.525,0.5168,0.5147,0.5129,0,0,0,0,0,0,0.5478,0.5574,0.5603,0.5608,0.5634,0.5693,0.5679,0.5727,0.5686,0.5677,0.5664,0.5644,0.5514,0.5487,0.5551,0.5316,0.5384,0.5369,0.5329,0.5308,0.5292,0.5369,0.5571,0,0,0,0,0,0.5458,0.5478,0.5552,0.5544,0.5561,0.5622,0.5634,0.5662,0.5656,0.5646,0.5604,0.5537,0.5452,0.5395,0.5314,0.5184,0.5268,0.5107,0.509,0.5077,0.5121,0.5194,0.5192,0.5212,0.5212,0.5213,0,0,0.5412,0.5467,0.5475,0.5525,0.555,0.5516,0.5629,0.5632,0.558,0.5622,0.5504,0.5477,0.5407,0.5262,0.52,0.523,0.5101,0.5064,0.5054,0.5106,0.5185,0.5184,0.5184,0.5206,0.5207,0.5208,0,0,0.5333,0.5379,0.5372,0.5377,0.5418,0.5437,0.5441,0.5477,0.547,0.5374,0.5385,0.5333,0.5177,0.5136,0.509,0.4936,0.502,0.4875,0.4843,0.4911,0.4913,0.4916,0.4986,0.4997,0.4859,0.4859,0.4858,0,0.5269,0.5265,0.5359,0.5329,0.5315,0.5395,0.534,0.5323,0.5305,0.5315,0.5306,0.5193,0.5123,0.5024,0.4957,0.4903,0.4972,0.4926,0.49,0.4905,0.491,0.4982,0.4994,0.4853,0.4853,0.4854,0.4855,0,0.518,0.5154,0.5137,0.5124,0.5117,0.5072,0.5087,0.5068,0.5078,0.5099,0.5038,0.4981,0.4959,0.4877,0.4857,0.4827,0.4873,0.4886,0.4974,0.4904,0.4981,0.4996,0.4845,0.4847,0.4848,0.485,0,0,0.5073,0.5078,0.5058,0.5038,0.5002,0.5002,0.4914,0.4911,0.495,0.4878,0.4922,0.4754,0.4847,0.4806,0.479,0.4814,0.4862,0.4857,0.4863,0.497,0.5036,0.5047,0.5066,0.4889,0.4892,0.4894,0.5066,0,0.4957,0.488,0.4902,0.4786,0.4745,0.4785,0.4731,0.4743,0.478,0.483,0.4825,0.4835,0.4776,0.4811,0.4812,0.4888,0.4904,0.4817,0.5053,0.506,0.5116,0.5084,0.4976,0.512,0.5082,0.5085,0.5087,0,0.4841,0.4812,0.4706,0.4691,0.4685,0.4632,0.467,0.4642,0.4735,0.4792,0.4842,0.4896,0.4914,0.4894,0.4985,0.4944,0.4981,0.5018,0.5026,0.5102,0.5102,0.5185,0.5151,0.5035,0.5112,0.511,0.5108,0,0.4752,0.4669,0.4596,0.4565,0.4556,0.4553,0.4561,0.4644,0.4708,0.4827,0.4927,0.4969,0.5044,0.5088,0.5146,0.5095,0.5292,0.5236,0.5268,0.527,0.526,0.5257,0.519,0.5304,0.5304,0.5304,0.5303,0,0.462,0.4554,0.4564,0.4521,0.4513,0.4517,0.4577,0.4635,0.4763,0.4873,0.4934,0.5051,0.5108,0.5218,0.5225,0.5324,0.536,0.5295,0.5324,0.5213,0.5204,0.5172,0.5106,0.531,0.5309,0.5307,0.5306,0,0.4541,0.4514,0.4475,0.4472,0.4482,0.4499,0.4608,0.4674,0.4794,0.4954,0.5003,0.5167,0.5317,0.5369,0.5496,0.5455,0.5399,0.554,0.5408,0.5418,0.5301,0.5234,0.5044,0.4891,0.5606,0.5608,0.5609,0,0.449,0.4456,0.4485,0.4503,0.4505,0.4546,0.459,0.4694,0.4781,0.5025,0.5092,0.53,0.541,0.5606,0.5633,0.5689,0.5468,0.5591,0.5442,0.5306,0.5254,0.4983,0.4846,0.5377,0.5376,0.5376,0.5375,0,0.4432,0.4468,0.4468,0.451,0.4541,0.4586,0.4645,0.4725,0.4863,0.4973,0.5148,0.5263,0.55,0.5542,0.5648,0.5651,0.5348,0.5579,0.5472,0.5108,0.4779,0.4643,0.5255,0.5369,0.537,0.537,0.5371,0.5371,0.4439,0.4451,0.4482,0.4509,0.4546,0.4572,0.4551,0.463,0.4721,0.4798,0.5062,0.513,0.5382,0.5529,0.5502,0.5444,0.5322,0.5303,0.5251,0.5,0.4777,0.5383,0.5505,0.5506,0.5507,0.5508,0.5509,0,0.4416,0.4427,0.4466,0.4462,0.4442,0.449,0.4527,0.4451,0.444,0.4607,0.4693,0.4946,0.5046,0.5184,0.5308,0.5157,0.4847,0.5014,0.4602,0.4495,0.5104,0.5021,0.5001,0.5001,0.5001,0.5002,0.5002,0.5002,0.4414,0.4407,0.4402,0.4328,0.4311,0.4184,0.4155,0.4074,0.4112,0.4119,0.4205,0.4382,0.4803,0.5067,0.5017,0.4893,0.4487,0.4322,0.4225,0.4693,0.4713,0.4732,0.4636,0.4536,0.4535,0.3443,0.3435,0.343]},{"header":{"parameterUnit":"m.s-1","parameterCategory":2,"la1":30.2991,"la2":30.254,"lo1":-89.0895,"lo2":-89.0444,"dy":0.0017,"dx":0.0017,"nx":28,"ny":28,"refTime":"2024-06-22T09:00:00:Z","depth":"0","parameterNumber":3,"parameterNumberName":"V-component_of_CURRENTS"},"data":[0,0,0,0,0,0,0,0,0,0,0,0,0,0,0,0,0,0,0,0,0,0,0,0,0,0,0,0,0,0,0,0,0,0,0,0,0,0,0,0,0,0,0,0,0,0,0,0,0,0,0,0,0,0,0,0,0,0,0.0108,0.0107,0,0.0056,0.0055,0.0054,-0.0019,-0.0021,-0.0022,-0.0023,-0.0134,-0.0136,-0.0138,0,0,0,0,0,0,0,0,0,0,0,0,0,0.0135,0.0135,0.0108,0.0107,0.0107,0.0056,0.0055,0.0054,-0.0019,-0.0021,-0.0022,-0.0024,-0.0134,-0.0136,-0.0138,0,0,0,0,0,0,0,0,0,0,0,0,0,0.0107,0.0135,0.0108,0.0064,0.006,0.0056,0.0055,0.0054,-0.0019,-0.0021,-0.0023,-0.0024,-0.0133,-0.0135,-0.0138,-0.0118,0,0,-0.0146,-0.0148,0,0,0,0,0,0,0,0,0.0108,0.0106,0.0071,0.0067,0.0062,0.0023,0.0024,-0.0006,-0.0018,0.001,-0.0023,-0.0025,-0.0085,-0.0092,-0.0098,-0.0123,-0.0128,-0.0147,-0.0148,-0.015,-0.015,0,0,0,0,0,0,0,0.011,0.0107,0.0087,0.0071,0.0065,0.0044,0.0038,0.0018,-0.0028,0.0008,0.0002,-0.0002,-0.0089,-0.0095,-0.0101,-0.013,-0.0147,-0.0149,-0.0151,-0.0152,-0.0182,-0.0181,0,0,0,0,0,0,0.012,0.011,0.0088,0.0085,0.0082,0.0045,0.0039,0.0037,-0.0027,-0.0038,-0.0,-0.0005,-0.0089,-0.0098,-0.0105,-0.0085,-0.015,-0.0152,-0.0154,-0.0183,-0.0182,-0.0181,0,0,0,0,0,0,0.0121,0.0119,0.009,0.0096,0.0091,0.0047,0.0046,0.0037,0.0035,-0.0032,-0.0045,0.0006,-0.0091,-0.0101,-0.0117,-0.009,-0.0153,-0.0156,-0.0184,-0.0183,-0.0182,-0.0045,0,0,0,0,0,0,0.0122,0.012,0.0132,0.0097,0.0091,0.012,0.0047,0.0037,0.0035,0.0028,-0.003,-0.0043,-0.0093,-0.0112,-0.012,-0.0095,-0.0158,-0.0185,-0.0183,-0.0182,-0.0051,-0.004,-0.003,0,0,0,0,0,0.0124,0.0158,0.0133,0.0131,0.0106,0.0122,0.0119,0.0079,0.0037,0.0064,0.0005,-0.0041,-0.0109,-0.0113,-0.0122,-0.0098,-0.0186,-0.0184,-0.0182,-0.0056,-0.0042,-0.003,0,0,0,0,0,0,0.0177,0.0153,0.0124,0.0148,0.0146,0.011,0.013,0.0096,0.0072,0.0058,-0.0021,-0.0035,-0.0042,-0.0087,-0.009,-0.0105,-0.0158,-0.0158,-0.0059,-0.0046,-0.0036,-0.0009,-0.016,0,0,0,0,0,0.0195,0.0208,0.0186,0.0204,0.0211,0.0171,0.0171,0.0148,0.0117,0.0105,0.0054,-0.0002,-0.0039,-0.0056,-0.0091,-0.0087,-0.0138,-0.0083,-0.0072,-0.0063,-0.0049,-0.0105,-0.0097,-0.0175,-0.0175,-0.0175,0,0,0.022,0.0206,0.0213,0.0216,0.0206,0.0237,0.0168,0.0189,0.0199,0.0098,0.0097,0.004,-0.003,-0.0034,-0.0042,-0.0068,-0.0067,-0.0061,-0.0052,-0.0043,-0.0102,-0.0094,-0.0087,-0.0174,-0.0174,-0.0174,0,0,0.0289,0.0269,0.0311,0.0319,0.032,0.0299,0.0312,0.0289,0.0269,0.0268,0.0184,0.0144,0.01,0.0047,0.0014,0.0062,-0.0008,0.0051,0.0129,0.0076,0.0082,0.0087,0.0041,0.0041,0.0056,0.0056,0.0056,0,0.032,0.0359,0.0331,0.0376,0.0385,0.0334,0.0386,0.0371,0.0338,0.0328,0.0288,0.0198,0.0136,0.0111,0.012,0.0088,0.0051,0.0091,0.0091,0.0095,0.0097,0.0049,0.0047,0.0063,0.0062,0.0062,0.0061,0,0.0427,0.0452,0.0485,0.0511,0.0524,0.0565,0.0538,0.0542,0.0499,0.0467,0.0438,0.0347,0.0292,0.0262,0.0207,0.0196,0.0162,0.0114,0.0066,0.0114,0.0059,0.0055,0.0073,0.007,0.0068,0.0067,0,0,0.0503,0.0551,0.0559,0.0589,0.0597,0.0623,0.0644,0.0652,0.0673,0.0612,0.0619,0.0528,0.0469,0.0427,0.0343,0.0291,0.027,0.0225,0.0219,0.0193,0.0165,0.0155,0.0148,0.0227,0.0227,0.0227,0.0124,0,0.0593,0.0696,0.0688,0.0773,0.0824,0.0784,0.0811,0.0803,0.0779,0.0778,0.0666,0.0643,0.0535,0.0512,0.0445,0.032,0.0263,0.0303,0.0111,0.0106,0.0101,0.0144,0.0196,0.011,0.0119,0.0118,0.0117,0,0.0704,0.075,0.0856,0.0897,0.0917,0.0959,0.0989,0.1011,0.0987,0.0965,0.0913,0.0825,0.0737,0.0637,0.0449,0.0485,0.0343,0.0232,0.0225,0.0166,0.0088,0.0058,0.01,-0.0165,0.0109,0.011,0.011,0,0.0781,0.0861,0.0945,0.0966,0.1015,0.105,0.1071,0.1074,0.1119,0.109,0.1111,0.0979,0.0936,0.0739,0.0509,0.0483,0.0305,0.0229,0.0081,0.0077,0.0058,0.0055,-0.0168,0.0092,0.0093,0.0093,0.0093,0,0.0879,0.0944,0.0995,0.1049,0.1155,0.1144,0.1253,0.1256,0.1287,0.1375,0.1218,0.125,0.0964,0.0821,0.0577,0.0337,0.035,0.0111,0.0057,0.0108,0.011,-0.0174,-0.0315,0.0089,0.009,0.0091,0.0091,0,0.0962,0.0994,0.1103,0.1172,0.1206,0.1287,0.1394,0.147,0.1473,0.1583,0.1579,0.1468,0.1291,0.0986,0.0686,0.0455,0.0057,0.0099,0.0186,0.0145,-0.0244,-0.0376,-0.0648,-0.0765,-0.0079,-0.008,-0.008,0,0.1017,0.1084,0.1209,0.1283,0.1328,0.1442,0.1528,0.1573,0.1673,0.1736,0.1802,0.1665,0.1615,0.1159,0.0725,0.0305,0.0041,0.0065,0.0007,-0.0243,-0.0433,-0.0541,-0.0628,0.003,0.003,0.003,0.003,0,0.1118,0.1165,0.125,0.1408,0.1521,0.166,0.1791,0.1905,0.1981,0.2078,0.2179,0.2141,0.1725,0.1332,0.075,0.0457,-0.0099,0.0056,-0.023,-0.0378,-0.0483,-0.0626,0.0069,0.0033,0.0033,0.0032,0.0032,0.0032,0.1188,0.1269,0.1382,0.1531,0.1671,0.1855,0.1988,0.2144,0.2336,0.2507,0.2473,0.2486,0.1918,0.1138,0.0673,-0.0094,-0.0123,-0.0329,-0.0472,-0.0562,-0.0668,0.0043,-0.0038,-0.0039,-0.004,-0.004,-0.004,0,0.1256,0.1346,0.149,0.1672,0.1833,0.1897,0.2142,0.2289,0.2538,0.2728,0.2826,0.2613,0.1882,0.1128,0.0084,-0.0515,-0.0728,-0.0829,-0.0987,-0.1055,-0.0443,-0.043,-0.0565,-0.0564,-0.0564,-0.0564,-0.0564,-0.0563,0.1296,0.1425,0.1499,0.1764,0.1901,0.213,0.228,0.2523,0.2718,0.2962,0.3038,0.3048,0.2516,0.0602,-0.0735,-0.1043,-0.1456,-0.1537,-0.1777,-0.1379,-0.1344,-0.1311,-0.1334,-0.1656,-0.1658,-0.2302,-0.2309,-0.2314]}],[{"header":{"parameterUnit":"m.s-1","parameterCategory":2,"la1":30.2991,"la2":30.254,"lo1":-89.0895,"lo2":-89.0444,"dy":0.0017,"dx":0.0017,"nx":28,"ny":28,"refTime":"2024-06-22T09:00:00:Z","depth":"2","parameterNumber":2,"parameterNumberName":"U-component_of_CURRENTS"},"data":[0,0,0,0,0,0,0,0,0,0,0,0,0,0,0,0,0,0,0,0,0,0,0,0,0,0,0,0,0,0,0,0,0,0,0,0,0,0,0,0,0,0,0,0,0,0,0,0,0,0,0,0,0,0,0,0,0,0,0.393,0.3931,0,0.4023,0.4024,0.4025,0.4122,0.4123,0.4125,0.4126,0.4133,0.4132,0.4131,0,0,0,0,0,0,0,0,0,0,0,0,0,0.3929,0.3927,0.3929,0.3931,0.3932,0.4023,0.4024,0.4025,0.4122,0.4124,0.4125,0.4127,0.4133,0.4132,0.413,0,0,0,0,0,0,0,0,0,0,0,0,0,0.3964,0.3927,0.3929,0.3992,0.3999,0.4023,0.4024,0.4026,0.4121,0.4124,0.4126,0.4128,0.4134,0.4132,0.413,0.4074,0,0,0.4125,0.4124,0,0,0,0,0,0,0,0,0.3962,0.3964,0.3982,0.3988,0.3996,0.4065,0.4027,0.4038,0.4121,0.4073,0.4126,0.4129,0.4101,0.4102,0.4114,0.4075,0.4075,0.4125,0.4123,0.4123,0.4122,0,0,0,0,0,0,0,0.3959,0.3961,0.3965,0.3983,0.3992,0.4049,0.4055,0.403,0.407,0.4077,0.4085,0.4098,0.4105,0.4116,0.4115,0.4075,0.4125,0.4123,0.4122,0.4121,0.4106,0.4107,0,0,0,0,0,0,0.3943,0.3958,0.3962,0.3968,0.3986,0.4047,0.4054,0.4039,0.4073,0.4082,0.4096,0.4102,0.4118,0.4117,0.4115,0.413,0.4123,0.4121,0.412,0.4105,0.4106,0.4107,0,0,0,0,0,0,0.3942,0.3941,0.3958,0.3969,0.3975,0.4044,0.4027,0.404,0.4066,0.4088,0.4095,0.4111,0.4119,0.4118,0.4129,0.4128,0.412,0.4118,0.4105,0.4106,0.4107,0.4109,0,0,0,0,0,0,0.3941,0.394,0.3938,0.3966,0.3974,0.3972,0.4025,0.404,0.407,0.408,0.4102,0.4105,0.4121,0.4132,0.4127,0.4126,0.4117,0.4104,0.4105,0.4106,0.4108,0.411,0.4112,0,0,0,0,0,0.394,0.3914,0.3937,0.3939,0.3963,0.3972,0.398,0.4038,0.4069,0.4071,0.4111,0.4105,0.4137,0.4131,0.4125,0.4123,0.4103,0.4105,0.4106,0.4107,0.411,0.4112,0,0,0,0,0,0,0.3877,0.3923,0.3948,0.3927,0.3953,0.3989,0.4008,0.4032,0.4065,0.4092,0.4105,0.4109,0.4128,0.4119,0.4112,0.4127,0.4121,0.4122,0.4124,0.4126,0.4128,0.4149,0.4116,0,0,0,0,0,0.3868,0.3885,0.3914,0.3899,0.3917,0.3962,0.3979,0.4017,0.4045,0.4065,0.4081,0.4107,0.4124,0.4122,0.4139,0.4121,0.4156,0.4121,0.4123,0.4125,0.4141,0.4203,0.4212,0.4112,0.4112,0.4112,0,0,0.3844,0.3867,0.3879,0.3893,0.3927,0.3949,0.3978,0.4009,0.4033,0.4054,0.4091,0.4113,0.4126,0.4142,0.4145,0.4133,0.417,0.4127,0.4127,0.4144,0.4206,0.4216,0.4224,0.4113,0.4113,0.4113,0,0,0.3801,0.3821,0.3833,0.3861,0.3915,0.3946,0.3951,0.3996,0.4029,0.4052,0.4095,0.4123,0.4121,0.4151,0.4158,0.4168,0.4189,0.4164,0.4172,0.4232,0.4241,0.4249,0.4302,0.4316,0.4151,0.4151,0.4151,0,0.3783,0.3788,0.3831,0.3849,0.3885,0.394,0.3959,0.3988,0.4032,0.4061,0.4068,0.413,0.4132,0.4167,0.4184,0.4172,0.4213,0.4159,0.4235,0.4244,0.4253,0.4305,0.432,0.4151,0.4151,0.4151,0.4151,0,0.3749,0.3776,0.3781,0.3841,0.3868,0.3898,0.3951,0.3986,0.403,0.4065,0.4119,0.4141,0.4183,0.4175,0.4179,0.4235,0.4248,0.4241,0.423,0.4263,0.4316,0.4331,0.4152,0.4151,0.4151,0.4151,0,0,0.367,0.3753,0.376,0.3803,0.3883,0.3897,0.3949,0.4008,0.4066,0.4094,0.416,0.4176,0.4211,0.4224,0.4234,0.4268,0.4351,0.4278,0.4281,0.4331,0.4494,0.4457,0.447,0.4364,0.4367,0.4369,0.4505,0,0.365,0.3686,0.3734,0.3785,0.3822,0.3904,0.3947,0.4011,0.408,0.4156,0.4189,0.4257,0.4221,0.4265,0.4289,0.4363,0.4393,0.4316,0.4454,0.4458,0.4422,0.4487,0.4142,0.4231,0.452,0.4522,0.4524,0,0.3614,0.3654,0.3698,0.3799,0.3823,0.3859,0.3977,0.4027,0.4144,0.4206,0.4276,0.4328,0.4399,0.4365,0.4475,0.4435,0.4465,0.4496,0.4502,0.4481,0.445,0.4245,0.4248,0.4549,0.4547,0.4546,0.4544,0,0.3553,0.3633,0.3675,0.3708,0.3817,0.3859,0.3923,0.4042,0.4113,0.4262,0.4344,0.4426,0.4504,0.4551,0.4608,0.4565,0.4737,0.4684,0.4669,0.4667,0.4407,0.4378,0.4755,0.4755,0.4755,0.4754,0.4754,0,0.352,0.3554,0.3656,0.368,0.3743,0.3833,0.3925,0.4013,0.4163,0.4258,0.4369,0.4475,0.4561,0.466,0.4673,0.4738,0.4791,0.47,0.471,0.4398,0.4368,0.4666,0.4654,0.4759,0.4758,0.4757,0.4756,0,0.3442,0.3514,0.3568,0.3679,0.3718,0.3763,0.3913,0.3978,0.4146,0.4286,0.4344,0.455,0.4699,0.4765,0.4885,0.4835,0.4892,0.4889,0.4522,0.4486,0.476,0.4746,0.4892,0.4892,0.4892,0.4892,0.4892,0,0.3401,0.3423,0.3539,0.3572,0.3624,0.3713,0.377,0.3944,0.4028,0.4321,0.4375,0.4606,0.4714,0.4893,0.4887,0.4921,0.4955,0.46,0.4441,0.4784,0.478,0.4766,0.4752,0.4092,0.4086,0.4081,0.4076,0,0.3324,0.3375,0.3419,0.3482,0.3543,0.3609,0.3714,0.3775,0.3989,0.4138,0.4348,0.4482,0.4691,0.4608,0.4686,0.4644,0.4567,0.4496,0.4964,0.4123,0.4044,0.4036,0.4046,0.4029,0.4034,0.4037,0.404,0.4042,0.3269,0.3271,0.3334,0.3376,0.3435,0.3473,0.3475,0.361,0.3733,0.3897,0.4154,0.4236,0.4341,0.4303,0.4199,0.4117,0.4416,0.4189,0.4198,0.4215,0.411,0.4038,0.4001,0.4005,0.4009,0.4012,0.4015,0,0.317,0.3192,0.3221,0.3251,0.323,0.3335,0.34,0.3376,0.3443,0.3646,0.3797,0.3607,0.3608,0.3682,0.3509,0.3536,0.3421,0.3372,0.3179,0.3235,0.3282,0.3119,0.2752,0.2747,0.2742,0.2738,0,0,0.3137,0.3105,0.3102,0.3034,0.3053,0.2993,0.2997,0.3009,0.3091,0.312,0.3155,0.3461,0.3613,0.3135,0.3104,0.2886,0.301,0.2773,0.3808,0.3639,0.3678,0.3806,0.3628,0,0,0,0,0]},{"header":{"parameterUnit":"m.s-1","parameterCategory":2,"la1":30.2991,"la2":30.254,"lo1":-89.0895,"lo2":-89.0444,"dy":0.0017,"dx":0.0017,"nx":28,"ny":28,"refTime":"2024-06-22T09:00:00:Z","depth":"2","parameterNumber":3,"parameterNumberName":"V-component_of_CURRENTS"},"data":[0,0,0,0,0,0,0,0,0,0,0,0,0,0,0,0,0,0,0,0,0,0,0,0,0,0,0,0,0,0,0,0,0,0,0,0,0,0,0,0,0,0,0,0,0,0,0,0,0,0,0,0,0,0,0,0,0,0,0.0369,0.0369,0,0.0303,0.0303,0.0302,0.0235,0.0235,0.0234,0.0233,0.008,0.0076,0.0073,0,0,0,0,0,0,0,0,0,0,0,0,0,0.0351,0.0352,0.0369,0.0368,0.0368,0.0304,0.0303,0.0301,0.0235,0.0235,0.0234,0.0233,0.0081,0.0077,0.0073,0,0,0,0,0,0,0,0,0,0,0,0,0,0.0328,0.0353,0.0369,0.0328,0.0324,0.0304,0.0303,0.0301,0.0236,0.0234,0.0233,0.0232,0.0082,0.0077,0.0072,0.0062,0,0,0.0057,0.0054,0,0,0,0,0,0,0,0,0.033,0.0329,0.0335,0.0331,0.0327,0.0278,0.024,0.0218,0.0236,0.0267,0.0233,0.0232,0.014,0.013,0.0119,0.0055,0.0049,0.0056,0.0053,0.0051,0.0049,0,0,0,0,0,0,0,0.0331,0.0331,0.0341,0.0335,0.0329,0.0284,0.028,0.0235,0.0207,0.0264,0.026,0.0256,0.0136,0.0124,0.0114,0.0046,0.0056,0.0052,0.0049,0.0047,-0.0082,-0.0083,0,0,0,0,0,0,0.0349,0.0333,0.0343,0.0339,0.0327,0.0286,0.0281,0.0293,0.021,0.0197,0.0257,0.0253,0.0133,0.012,0.0109,0.0076,0.0051,0.0046,0.0043,-0.0082,-0.0082,-0.0083,0,0,0,0,0,0,0.0349,0.0352,0.0346,0.0335,0.0331,0.0288,0.0301,0.0293,0.0278,0.0205,0.019,0.0252,0.0132,0.0116,0.0065,0.007,0.0044,0.0039,-0.0082,-0.0082,-0.0083,0.002,0,0,0,0,0,0,0.035,0.0352,0.0362,0.0337,0.0333,0.034,0.0302,0.0292,0.0279,0.0273,0.0196,0.0181,0.013,0.0073,0.006,0.0062,0.0035,-0.0081,-0.0082,-0.0082,0.0018,0.0024,0.0029,0,0,0,0,0,0.0349,0.0371,0.0363,0.0364,0.035,0.0341,0.0334,0.0297,0.028,0.0279,0.0222,0.0183,0.0058,0.0069,0.0053,0.0055,-0.0081,-0.0082,-0.0082,0.0015,0.0022,0.0029,0,0,0,0,0,0,0.0368,0.0365,0.0356,0.0376,0.0362,0.033,0.0328,0.0306,0.0264,0.0255,0.0183,0.0164,0.012,0.0071,0.0084,0.0012,-0.0019,-0.0023,0.006,0.0066,0.0072,0.0107,0.0031,0,0,0,0,0,0.038,0.0393,0.0381,0.0395,0.0395,0.0364,0.0355,0.0335,0.0297,0.0278,0.0223,0.016,0.0106,0.0075,0.002,-0.0013,-0.0055,-0.0027,-0.0021,-0.0016,0.0001,-0.0055,-0.0052,-0.0086,-0.0086,-0.0085,0,0,0.0388,0.039,0.0395,0.0399,0.0386,0.0394,0.0355,0.0353,0.0349,0.0268,0.0239,0.018,0.0101,0.0061,0.0036,0.002,-0.0031,-0.0017,-0.0011,0.0002,-0.0056,-0.0052,-0.0049,-0.0086,-0.0086,-0.0086,0,0,0.0416,0.042,0.0441,0.0438,0.0431,0.0416,0.0421,0.0395,0.0374,0.0345,0.0281,0.0228,0.0149,0.0095,0.0057,0.0059,0.0003,0.0038,0.0095,0.0041,0.0044,0.0046,-0.0003,-0.0006,0.0039,0.004,0.004,0,0.0423,0.0457,0.0442,0.0462,0.0468,0.0434,0.0458,0.0434,0.0389,0.038,0.0346,0.0236,0.0166,0.0119,0.0116,0.0074,0.0039,0.0082,0.0052,0.0053,0.0053,0.0002,-0.0003,0.0044,0.0044,0.0043,0.0043,0,0.0468,0.0492,0.0507,0.0524,0.0524,0.0541,0.0518,0.0509,0.0481,0.0454,0.0406,0.0311,0.0251,0.0212,0.0165,0.0134,0.0107,0.007,0.0045,0.0064,0.0007,0.0001,0.0051,0.005,0.0048,0.0047,0,0,0.0497,0.0533,0.0538,0.0566,0.0564,0.0577,0.0576,0.0576,0.0592,0.0521,0.0522,0.0415,0.0374,0.0328,0.0254,0.0201,0.0164,0.015,0.0145,0.0121,0.0054,0.0032,0.0022,0.013,0.013,0.0129,0.0014,0,0.0539,0.0601,0.06,0.0653,0.0688,0.0666,0.0675,0.0663,0.0642,0.0631,0.0533,0.0501,0.0414,0.0393,0.0326,0.0213,0.0152,0.02,0.0023,0.0018,0.0012,0.0015,0.0057,-0.0042,0.0007,0.0006,0.0005,0,0.0587,0.0627,0.0695,0.0742,0.0756,0.0779,0.0811,0.0816,0.0787,0.0768,0.0717,0.0644,0.0558,0.048,0.03,0.0339,0.0211,0.0112,0.0104,0.0047,-0.0016,-0.0056,-0.0057,-0.0007,-0.0006,-0.0005,-0.0004,0,0.0636,0.0694,0.076,0.0775,0.0817,0.0846,0.0866,0.0865,0.0898,0.0866,0.088,0.0757,0.0714,0.0539,0.0336,0.0321,0.0138,0.0082,-0.0065,-0.0068,-0.0086,-0.009,-0.005,-0.005,-0.005,-0.005,-0.0049,0,0.0691,0.0742,0.0796,0.0836,0.0923,0.092,0.1006,0.1006,0.1027,0.1092,0.0964,0.0977,0.0731,0.0595,0.0384,0.0154,0.0168,-0.0047,-0.0097,-0.0051,-0.005,-0.0063,-0.0063,-0.0054,-0.0053,-0.0052,-0.0051,0,0.0738,0.0769,0.0855,0.0923,0.0956,0.1021,0.1118,0.1177,0.1179,0.1259,0.1257,0.1152,0.0981,0.0714,0.0438,0.0237,0.0,-0.0092,-0.0017,-0.0056,-0.0186,-0.0179,-0.0269,-0.0271,-0.0272,-0.0273,-0.0274,0,0.0768,0.0819,0.0931,0.0997,0.1039,0.1139,0.1214,0.1257,0.1338,0.1377,0.1426,0.1291,0.1223,0.0801,0.0423,0.0048,-0.0005,-0.0166,-0.0201,-0.0167,-0.0207,-0.0198,-0.019,-0.0192,-0.0193,-0.0193,-0.0193,0,0.083,0.0873,0.095,0.1089,0.1191,0.1309,0.1426,0.1516,0.1583,0.1647,0.1711,0.166,0.1274,0.0908,0.0392,0.0143,-0.0104,-0.0183,-0.0168,-0.0135,-0.0102,-0.0139,-0.0132,-0.0195,-0.0194,-0.0194,-0.0194,-0.0194,0.0884,0.0949,0.1059,0.1191,0.1314,0.147,0.158,0.171,0.1858,0.1976,0.1924,0.1855,0.1442,0.0788,0.0336,-0.0134,-0.0112,-0.0278,-0.0275,-0.0272,-0.0234,-0.0204,-0.0309,-0.031,-0.031,-0.031,-0.0311,0,0.0948,0.1027,0.1149,0.1315,0.1453,0.1514,0.1716,0.1826,0.2014,0.2121,0.217,0.1776,0.1351,0.0859,0.0159,-0.0253,-0.0277,-0.0379,-0.0324,-0.0318,-0.0314,-0.0277,-0.0366,-0.0367,-0.0369,-0.037,0,0,0.0988,0.1111,0.1172,0.1406,0.1524,0.1721,0.1844,0.2009,0.2128,0.2231,0.2206,0.2125,0.1516,0.1001,0.0435,0.0026,-0.0045,-0.0044,0.005,0.019,0.0199,-0.0203,-0.0133,0,0,0,0,0]}],[{"header":{"parameterUnit":"m.s-1","parameterCategory":2,"la1":30.2991,"la2":30.254,"lo1":-89.0895,"lo2":-89.0444,"dy":0.0017,"dx":0.0017,"nx":28,"ny":28,"refTime":"2024-06-22T09:00:00:Z","depth":"4","parameterNumber":2,"parameterNumberName":"U-component_of_CURRENTS"},"data":[0,0,0,0,0,0,0,0,0,0,0,0,0,0,0,0,0,0,0,0,0,0,0,0,0,0,0,0,0,0,0,0,0,0,0,0,0,0,0,0,0,0,0,0,0,0,0,0,0,0,0,0,0,0,0,0,0,0,0.2255,0.2256,0,0.2387,0.2388,0.239,0.2505,0.2506,0.2507,0.2508,0.2702,0.2706,0.271,0,0,0,0,0,0,0,0,0,0,0,0,0,0.2135,0.2136,0.2255,0.2256,0.2258,0.2386,0.2388,0.239,0.2504,0.2506,0.2507,0.2508,0.2701,0.2706,0.2711,0,0,0,0,0,0,0,0,0,0,0,0,0,0.222,0.2137,0.2254,0.2329,0.2337,0.2386,0.2388,0.2391,0.2504,0.2506,0.2508,0.2509,0.2699,0.2705,0.2711,0.2715,0,0,0.273,0.2733,0,0,0,0,0,0,0,0,0.2215,0.2225,0.2316,0.2324,0.2333,0.2429,0.2417,0.2502,0.2504,0.2442,0.2508,0.251,0.2614,0.2628,0.265,0.2724,0.2732,0.2731,0.2734,0.2737,0.2739,0,0,0,0,0,0,0,0.2209,0.222,0.2309,0.2318,0.2328,0.2367,0.2381,0.2434,0.252,0.2448,0.2456,0.2467,0.262,0.2644,0.2656,0.2735,0.2731,0.2736,0.274,0.2742,0.2998,0.3001,0,0,0,0,0,0,0.2186,0.2214,0.2305,0.2313,0.2275,0.2367,0.2383,0.2398,0.2518,0.2537,0.2466,0.2472,0.2633,0.2648,0.2663,0.2827,0.2737,0.2743,0.2746,0.2995,0.2999,0.3002,0,0,0,0,0,0,0.2183,0.2193,0.2299,0.2265,0.2281,0.2367,0.2383,0.24,0.2484,0.2531,0.2552,0.254,0.2634,0.2654,0.2776,0.283,0.2746,0.2751,0.2991,0.2996,0.3,0.3058,0,0,0,0,0,0,0.2179,0.2191,0.2226,0.2263,0.2282,0.2377,0.2382,0.2401,0.2483,0.2495,0.26,0.2616,0.2637,0.2766,0.2782,0.2837,0.2756,0.2987,0.2993,0.2999,0.3052,0.3064,0.3074,0,0,0,0,0,0.2174,0.2205,0.2227,0.224,0.2317,0.238,0.2395,0.2462,0.2486,0.2541,0.2615,0.2616,0.2814,0.2774,0.2791,0.285,0.2984,0.2992,0.2998,0.3047,0.3062,0.3074,0,0,0,0,0,0,0.2177,0.222,0.2246,0.2292,0.2354,0.24,0.2458,0.2492,0.2591,0.2621,0.266,0.2683,0.281,0.2825,0.2781,0.2942,0.2898,0.2908,0.2929,0.2943,0.2954,0.2938,0.2761,0,0,0,0,0,0.2188,0.2226,0.2275,0.2321,0.2356,0.2417,0.2461,0.2507,0.2578,0.2626,0.2694,0.2769,0.284,0.2891,0.2958,0.3045,0.305,0.3094,0.3105,0.3114,0.3116,0.3171,0.3186,0.3025,0.3025,0.3025,0,0,0.2196,0.2231,0.2252,0.2326,0.238,0.2441,0.2452,0.2538,0.2601,0.2629,0.2763,0.2822,0.2876,0.2981,0.3037,0.3008,0.3167,0.3123,0.313,0.3126,0.318,0.3195,0.3208,0.303,0.3029,0.3028,0,0,0.2218,0.2273,0.2311,0.2372,0.2462,0.25,0.2536,0.2621,0.2686,0.28,0.2838,0.293,0.3046,0.3088,0.3119,0.3231,0.3229,0.3265,0.3303,0.3358,0.337,0.3382,0.3415,0.3429,0.3262,0.3262,0.3262,0,0.2234,0.229,0.2337,0.2399,0.2459,0.253,0.2598,0.2664,0.2783,0.2836,0.2862,0.3036,0.3087,0.3185,0.323,0.3254,0.3281,0.3243,0.3369,0.338,0.339,0.3422,0.3436,0.3266,0.3265,0.3265,0.3264,0,0.2275,0.2347,0.2384,0.2479,0.2549,0.2629,0.2711,0.2802,0.288,0.2935,0.3078,0.3149,0.3245,0.3278,0.3292,0.3398,0.3393,0.3379,0.3324,0.341,0.3438,0.3452,0.3271,0.327,0.3268,0.3268,0,0,0.2238,0.2382,0.2405,0.2468,0.2608,0.2659,0.2778,0.2888,0.2967,0.3081,0.3182,0.3298,0.3338,0.3377,0.3411,0.3455,0.3556,0.3457,0.3458,0.3471,0.3678,0.3462,0.3455,0.3571,0.3574,0.3576,0.3669,0,0.2271,0.2383,0.2456,0.2582,0.2649,0.2758,0.2854,0.2964,0.3069,0.3187,0.326,0.3381,0.3373,0.3444,0.3486,0.3558,0.3596,0.3532,0.361,0.3612,0.3393,0.3465,0.3585,0.3679,0.3682,0.3685,0.3686,0,0.2287,0.2366,0.2488,0.2636,0.2678,0.2769,0.2938,0.3033,0.319,0.3277,0.3387,0.3458,0.3571,0.3547,0.3671,0.3639,0.3666,0.3691,0.3695,0.3477,0.342,0.3579,0.3711,0.3709,0.3707,0.3705,0.3704,0,0.2224,0.2387,0.2487,0.2545,0.2717,0.2806,0.2909,0.307,0.316,0.3352,0.344,0.3564,0.3662,0.3715,0.3776,0.375,0.3888,0.3851,0.3671,0.3656,0.3796,0.3783,0.392,0.3919,0.3919,0.3919,0.3919,0,0.221,0.2294,0.2476,0.2532,0.2652,0.2791,0.2933,0.3053,0.3231,0.3328,0.3487,0.3578,0.3715,0.3802,0.3822,0.3785,0.3927,0.3683,0.3666,0.3821,0.3809,0.3805,0.3791,0.3922,0.3922,0.3921,0.392,0,0.2117,0.2245,0.2357,0.2556,0.2626,0.2712,0.2929,0.3011,0.3213,0.3351,0.3423,0.3631,0.3746,0.3835,0.3944,0.3828,0.383,0.3779,0.3953,0.3944,0.3549,0.3537,0.3573,0.3566,0.356,0.3555,0.3551,0,0.2076,0.2131,0.234,0.2405,0.2509,0.2663,0.2754,0.2976,0.306,0.3346,0.3383,0.3592,0.3696,0.3667,0.3788,0.3796,0.375,0.3712,0.36,0.3533,0.3515,0.3512,0.3509,0.3542,0.354,0.3539,0.3537,0,0.1984,0.2079,0.2167,0.2296,0.2413,0.2518,0.2676,0.2715,0.2956,0.3165,0.3266,0.3338,0.3461,0.3531,0.3567,0.3567,0.3712,0.365,0.366,0.3555,0.3496,0.3483,0.3486,0.3517,0.352,0.3522,0.3523,0,0.1911,0.194,0.2064,0.2158,0.2282,0.2335,0.2442,0.2548,0.2662,0.2962,0.2996,0.3224,0.3429,0.3416,0.3456,0.3435,0.3372,0.3233,0.3264,0.3287,0.3149,0.303,0.2895,0,0,0,0,0,0.1822,0.1839,0.1913,0.1999,0.2107,0.219,0.2363,0.2474,0.2701,0.2688,0.2832,0.2935,0.302,0.315,0.3069,0.3328,0.338,0.3218,0.3234,0.3405,0.3428,0.3291,0,0,0,0,0,0,0.1762,0.1827,0.1853,0.1841,0.1871,0.1975,0.2081,0.2244,0.225,0.2495,0.256,0.2749,0.2879,0.3033,0.3013,0.3046,0.2991,0.3362,0.3354,0.3392,0.3413,0.3432,0.3299,0,0,0,0,0]},{"header":{"parameterUnit":"m.s-1","parameterCategory":2,"la1":30.2991,"la2":30.254,"lo1":-89.0895,"lo2":-89.0444,"dy":0.0017,"dx":0.0017,"nx":28,"ny":28,"refTime":"2024-06-22T09:00:00:Z","depth":"4","parameterNumber":3,"parameterNumberName":"V-component_of_CURRENTS"},"data":[0,0,0,0,0,0,0,0,0,0,0,0,0,0,0,0,0,0,0,0,0,0,0,0,0,0,0,0,0,0,0,0,0,0,0,0,0,0,0,0,0,0,0,0,0,0,0,0,0,0,0,0,0,0,0,0,0,0,0.0355,0.0355,0,0.0317,0.0317,0.0316,0.0288,0.0288,0.0288,0.0288,0.0167,0.0164,0.0161,0,0,0,0,0,0,0,0,0,0,0,0,0,0.0334,0.0335,0.0355,0.0355,0.0354,0.0317,0.0317,0.0316,0.0288,0.0288,0.0288,0.0288,0.0168,0.0165,0.0161,0,0,0,0,0,0,0,0,0,0,0,0,0,0.0324,0.0335,0.0355,0.0337,0.0335,0.0318,0.0317,0.0316,0.0288,0.0288,0.0288,0.0288,0.017,0.0165,0.0161,0.0138,0,0,0.0147,0.0145,0,0,0,0,0,0,0,0,0.0324,0.0324,0.034,0.0338,0.0336,0.0308,0.0265,0.0253,0.0289,0.0305,0.0288,0.0288,0.0207,0.02,0.0193,0.0132,0.0127,0.0146,0.0144,0.0142,0.014,0,0,0,0,0,0,0,0.0325,0.0326,0.0339,0.0339,0.0337,0.0306,0.0305,0.0263,0.0256,0.0304,0.0302,0.0299,0.0205,0.0198,0.019,0.0125,0.0146,0.0142,0.014,0.0138,0.0011,0.001,0,0,0,0,0,0,0.0335,0.0327,0.0341,0.0338,0.033,0.0307,0.0306,0.0316,0.0258,0.025,0.0299,0.0298,0.0206,0.0195,0.0186,0.0152,0.0142,0.0137,0.0135,0.0012,0.0011,0.001,0,0,0,0,0,0,0.0335,0.0338,0.0342,0.0331,0.033,0.0308,0.032,0.0316,0.0312,0.0256,0.0246,0.03,0.0205,0.0192,0.0148,0.0147,0.0135,0.0131,0.0012,0.0011,0.0011,0.0086,0,0,0,0,0,0,0.0335,0.0338,0.035,0.0333,0.0331,0.0335,0.032,0.0315,0.0311,0.0308,0.0253,0.0242,0.0204,0.0156,0.0144,0.014,0.0128,0.0013,0.0012,0.0011,0.0084,0.0088,0.0091,0,0,0,0,0,0.0335,0.035,0.0351,0.0352,0.0348,0.0335,0.0332,0.0314,0.0311,0.031,0.0272,0.0244,0.0139,0.0152,0.0138,0.0133,0.0014,0.0012,0.0011,0.0083,0.0087,0.0091,0,0,0,0,0,0,0.0346,0.0348,0.0349,0.0364,0.0353,0.0331,0.0331,0.032,0.0292,0.0291,0.0239,0.0224,0.0184,0.0145,0.016,0.009,0.007,0.0066,0.0129,0.0133,0.0136,0.0162,0.0124,0,0,0,0,0,0.0356,0.0368,0.036,0.0371,0.0371,0.0354,0.0348,0.0339,0.0312,0.0301,0.026,0.0212,0.0167,0.0141,0.0095,0.006,0.0025,0.0045,0.0048,0.0051,0.0061,0.001,0.001,0.0006,0.0006,0.0006,0,0,0.0361,0.0365,0.0371,0.0374,0.0368,0.0369,0.035,0.0348,0.0344,0.029,0.0268,0.0223,0.0159,0.0121,0.0099,0.009,0.0031,0.0049,0.0053,0.0061,0.0008,0.0009,0.001,0.0005,0.0005,0.0005,0,0,0.0374,0.0386,0.0399,0.0396,0.0393,0.0384,0.0387,0.0369,0.0358,0.0333,0.029,0.0247,0.0181,0.0137,0.0106,0.0096,0.0051,0.0076,0.0115,0.0065,0.0066,0.0066,0.002,0.0016,0.0078,0.0078,0.0078,0,0.0379,0.0403,0.0397,0.0408,0.0413,0.0395,0.0408,0.0391,0.0358,0.0352,0.0333,0.0242,0.0188,0.0142,0.0139,0.0105,0.0073,0.0112,0.0072,0.0072,0.0071,0.0024,0.0018,0.0082,0.0081,0.0081,0.0081,0,0.0399,0.042,0.0427,0.0441,0.0441,0.0451,0.0435,0.0429,0.0415,0.0397,0.0355,0.0283,0.0234,0.0202,0.0169,0.0132,0.0111,0.0086,0.0072,0.0076,0.0025,0.0018,0.0087,0.0085,0.0084,0.0084,0,0,0.0407,0.0437,0.0442,0.0465,0.0466,0.0473,0.0471,0.0468,0.0481,0.0428,0.0427,0.0339,0.0313,0.0275,0.022,0.0173,0.0132,0.0137,0.0132,0.0109,0.0029,0.0016,0.0006,0.0107,0.0106,0.0105,-0.0003,0,0.0428,0.0467,0.0471,0.0508,0.0531,0.0524,0.0528,0.0521,0.0508,0.0499,0.0425,0.0399,0.0336,0.0322,0.0263,0.0171,0.0117,0.0165,0.0013,0.0009,0.0011,-0.0002,0.0103,-0.0009,-0.0011,-0.0012,-0.0013,0,0.0447,0.0476,0.0523,0.0565,0.0575,0.0595,0.0623,0.0626,0.0604,0.0592,0.0552,0.0499,0.0425,0.0373,0.0217,0.0254,0.0151,0.007,0.0064,0.0024,-0.0018,-0.0018,-0.0027,-0.0026,-0.0025,-0.0024,-0.0023,0,0.0469,0.0514,0.0562,0.0575,0.0612,0.0639,0.066,0.0661,0.0688,0.0663,0.0675,0.0572,0.0538,0.0394,0.0231,0.0227,0.0057,0.0025,-0.0091,-0.0094,-0.0081,-0.008,-0.0093,-0.0093,-0.0092,-0.0092,-0.0092,0,0.0492,0.0531,0.0586,0.0614,0.0684,0.069,0.076,0.0763,0.0783,0.0826,0.0738,0.0734,0.0545,0.0427,0.0259,0.0069,0.0073,-0.0084,-0.0122,-0.0049,-0.0043,-0.0086,-0.0084,-0.0096,-0.0095,-0.0095,-0.0094,0,0.0508,0.054,0.0606,0.067,0.0702,0.0757,0.0848,0.0894,0.0901,0.0954,0.0954,0.0862,0.0708,0.05,0.0268,0.0122,-0.0072,-0.0146,-0.0043,-0.0074,-0.0199,-0.0192,-0.0284,-0.0285,-0.0287,-0.0287,-0.0288,0,0.0519,0.0557,0.066,0.0717,0.0758,0.0846,0.0912,0.0955,0.1014,0.1032,0.1059,0.0939,0.0845,0.052,0.0282,-0.0044,-0.0099,-0.0204,-0.0215,-0.019,-0.0219,-0.021,-0.0201,-0.029,-0.029,-0.0291,-0.0291,0,0.0546,0.059,0.0652,0.0773,0.0864,0.0965,0.1064,0.1115,0.1167,0.1172,0.1155,0.0987,0.0809,0.0538,0.0285,0.0045,-0.0137,-0.0217,-0.0217,-0.0228,-0.0199,-0.0224,-0.0214,-0.0295,-0.0294,-0.0294,-0.0294,0,0.0576,0.0627,0.0721,0.0827,0.0946,0.1057,0.1102,0.1174,0.123,0.1247,0.1238,0.1042,0.0934,0.0583,0.0349,0.0115,0.0042,-0.0045,-0.0055,-0.0054,0.0036,0.0109,0.0077,0,0,0,0,0,0.0602,0.0666,0.0765,0.0889,0.1006,0.1079,0.1196,0.123,0.1282,0.1287,0.127,0.1104,0.077,0.0625,0.0388,0.0294,-0.0021,0.0004,-0.0131,-0.0317,-0.0312,-0.0248,0,0,0,0,0,0,0.0623,0.0718,0.0768,0.0926,0.1014,0.1152,0.123,0.1262,0.1265,0.1277,0.1108,0.1032,0.0706,0.091,0.0382,0.0309,0.0186,-0.0149,-0.0155,-0.0319,-0.0315,-0.0311,-0.0244,0,0,0,0,0]}]]